OpenBCM V1.08-5-g2f4a (Linux)

Packet Radio Mailbox

IZ3LSV

[San Dona' di P. JN]

 Login: GUEST





  
I0OJJ  > KEPS     25.11.25 01:25l 310 Lines 14714 Bytes #108 (0) @ AMSAT
BID : ORB25329.1
Read: GUEST
Subj: 2Line Orbital Elements 25329.AMSAT
Path: IZ3LSV<IK6IHL<IK7NXU<HB9ON<DK0WUE<PD0LPM<PI8ZTM<IR0AAB<I0OJJ
Sent: 251125/0021z @:I0OJJ.ITA.EU [Rome] obcm1.08-11-2-gbfe9
From: I0OJJ @ I0OJJ.ITA.EU (Gustavo)
To:   KEPS @ AMSAT
X-Info: This message was generated automatically


QST de W1STR

AMSAT Orbital Elements for Amateur Satellites in TLE Format
From Orbital Analysis Office
New England Sci-Tech STEM Education Center
Natick MA November 25, 2025
To all radio amateurs


These element sets describe the orbits of various satellites 
in use by the amateur radio community. For details see:
www.amsat.org/keplerian-elements-formats/

A daily update of element sets is available at:
www.amsat.org/tle/daily-bulletin.txt
or without bulletin text:
www.amsat.org/tle/dailytle.txt


AO-07
1 07530U 74089B   25328.63325197 -.00000040  00000-0  41462-4 0  9995
2 07530 101.9973 334.7103 0012252 160.6151 316.0496 12.53693653334888
UO-11
1 14781U 84021B   25328.66253352  .00001879  00000-0  20018-3 0  9997
2 14781  97.7788 291.9758 0008716 131.8357 228.3606 14.90050575226665
AO-27
1 22825U 93061C   25328.67770117  .00000155  00000-0  76280-4 0  9992
2 22825  98.7168  30.9001 0008029 347.9707  12.1282 14.30867005677751
FO-29
1 24278U 96046B   25328.65866373 -.00000024  00000-0  14798-4 0  9992
2 24278  98.5474 200.2186 0348829 266.9954  89.1225 13.53261232445509
GO-32
1 25397U 98043D   25328.51312778  .00000102  00000-0  64392-4 0  9995
2 25397  98.9906 311.3060 0002394  85.3934 274.7517 14.24369423422192
ISS
1 25544U 98067A   25328.54472231  .00014120  00000-0  26353-3 0  9998
2 25544  51.6316 232.5414 0003895 163.7073 196.4042 15.49046550540034
NO-44
1 26931U 01043C   25328.71472102  .00000238  00000-0  11984-3 0  9992
2 26931  67.0520  53.0913 0007330 271.0022  89.0240 14.31840113261177
SO-50
1 27607U 02058C   25328.65744243  .00001883  00000-0  24345-3 0  9993
2 27607  64.5547  41.4816 0071218 299.9429  59.4618 14.82283645234131
CO-55
1 27844U 03031E   25328.74493272  .00000415  00000-0  19906-3 0  9998
2 27844  98.6769 334.8799 0010578  62.4242 297.8011 14.24156699162572
CO-57
1 27848U 03031J   25327.99981886  .00000360  00000-0  17755-3 0  9990
2 27848  98.6797 334.0214 0010607  80.7138 279.5240 14.23467709162185
RS-22
1 27939U 03042A   25328.85769008  .00001557  00000-0  25124-3 0  9997
2 27939  98.3366 142.5834 0011052 191.2504 303.3140 14.72893463185460
CO-58
1 28895U 05043F   25328.63015671  .00002248  00000-0  36760-3 0  9994
2 28895  98.2718 115.4041 0015204 131.9238 228.3267 14.71792052 71651
CO-65
1 32785U 08021C   25328.84242918  .00006732  00000-0  45680-3 0  9998
2 32785  97.8073 301.6835 0009984  15.6107 344.5426 15.06717277954398
CO-66
1 32791U 08021J   25328.39744801  .00018323  00000-0  75000-3 0  9991
2 32791  97.7438 312.9255 0002605 358.5390   1.5839 15.24373039956008
RS-30
1 32953U 08025A   25328.84435281  .00000032  00000-0  16193-3 0  9990
2 32953  82.5000 122.5532 0019573  39.7640 320.4870 12.43171285794304
SRMSAT
1 37841U 11058D   25328.09026591  .00000454  00000-0  10267-3 0  9992
2 37841  19.9710 220.8280 0011869 107.8386  35.6214 14.11502436728805
ZACUBE-1
1 39417U 13066B   25328.76798044  .00006532  00000-0  53740-3 0  9993
2 39417  97.8038 285.2891 0040699 206.0804 153.8369 14.98812829650080
Delfi-N3xt
1 39428U 13066N   25328.69595602  .00007530  00000-0  71408-3 0  9992
2 39428  97.8329 244.7110 0079804 164.4374 195.9326 14.91438184644105
GOMX-1
1 39430U 13066Q   25328.84561344  .00002362  00000-0  36561-3 0  9997
2 39430  97.6606 177.0900 0131186  14.0506 346.4294 14.68460777639915
LO-74
1 39440U 13066AA  25328.83060104  .00006240  00000-0  60512-3 0  9997
2 39440  97.8688 272.5309 0059947 346.1253  13.8315 14.91678826646508
AO-73
1 39444U 13066AE  25328.64579964  .00009337  00000-0  64174-3 0  9997
2 39444  97.8056 291.7103 0039092 175.6696 184.4877 15.05538500648848
DTUSAT-2
1 40030U 14033W   25328.66316311  .00008813  00000-0  52688-3 0  9997
2 40030  98.0747 309.1192 0007281 199.1263 160.9693 15.11308560621753
EO-80
1 40032U 14033Y   25328.67469752  .00009338  00000-0  55676-3 0  9991
2 40032  98.0632 308.5507 0008997 138.6365 221.5546 15.11375468621737
LILACSAT-2
1 40908U 15049K   25328.85274097  .00017301  00000-0  38126-3 0  9997
2 40908  97.4932 353.6930 0006239 276.5935  83.4602 15.43978965564143
IO-86
1 40931U 15052B   25151.18580175  .00001241  00000-0  78118-4 0  9996
2 40931   6.0006  24.0987 0012733 338.8432  21.1169 14.78805930523159
Horyu-4
1 41340U 16012D   25328.71142808  .00050653  00000-0  91348-3 0  9990
2 41340  30.9947  73.5504 0006049  54.2069 305.9141 15.48468139538755
Lapan A3
1 41603U 16040E   25328.85693903  .00004845  00000-0  16216-3 0  9998
2 41603  97.1429 327.0668 0011814  36.6147 323.5900 15.31349213523523
CAS-2T
1 41847U 16066G   25328.67822773  .00001169  00000-0  17312-3 0  9999
2 41847  98.4054  41.5944 0344614  29.8736 332.1642 14.44071212475272
TechnoSat
1 42829U 17042E   25328.69008155  .00003579  00000-0  26781-3 0  9994
2 42829  97.4024 129.6805 0019748  72.6573 287.6811 15.03200175455969
AO-91
1 43017U 17073E   25328.60300332  .00012685  00000-0  60607-3 0  9994
2 43017  97.4955 195.2160 0161596 313.2283  45.5545 15.08282281434501
S-Net D
1 43186U 18014G   25328.71303713  .00006725  00000-0  37344-3 0  9995
2 43186  97.5483 229.9502 0009507  18.2684 341.8887 15.14021331427798
S-Net B
1 43187U 18014H   25328.72080916  .00006967  00000-0  38694-3 0  9991
2 43187  97.5488 229.9377 0009936  13.2735 346.8756 15.13997920427797
S-Net A
1 43188U 18014J   25328.71282039  .00006692  00000-0  37151-3 0  9993
2 43188  97.5497 230.1033 0009879  14.0603 346.0902 15.14027341427797
S-Net C
1 43189U 18014K   25328.72371745  .00007061  00000-0  39205-3 0  9991
2 43189  97.5517 230.1561 0011037   5.6571 354.4783 15.13992697426340
Ten-Koh
1 43677U 18084G   25328.72120541  .00004171  00000-0  32612-3 0  9990
2 43677  98.0712 147.6175 0009287  74.5480 285.6768 15.01636463385464
PO-101
1 43678U 18084H   25328.83354637  .00002515  00000-0  21114-3 0  9993
2 43678  98.1034 151.5779 0007299  89.9147 270.2911 14.99303076385588
QO-100
1 43700U 18090A   25328.74475590  .00000164  00000-0  00000+0 0  9993
2 43700   0.0238  63.4929 0002563 219.7486  74.6580  1.00274667 25623
MinXSS-2
1 43758U 18099A   25328.68445177  .00027508  00000-0  85554-3 0  9998
2 43758  97.4817  35.8201 0008855 281.8549  78.1700 15.33252706382658
AO-95
1 43770U 18099N   25328.70783538  .00014091  00000-0  63214-3 0  9993
2 43770  97.4695  25.1302 0009391 355.2518   4.8627 15.21273506382076
SNUSat 2
1 43782U 18099AA  25328.13594286  .00009735  00000-0  48423-3 0  9997
2 43782  97.4373  19.8656 0009710 296.3614  63.6623 15.17787230381887
SnugLite
1 43784U 18099AC  25328.69952256  .00014017  00000-0  62257-3 0  9995
2 43784  97.4186  20.4038 0001734 302.3825  57.7243 15.21650799382161
ITASat 1
1 43786U 18099AE  25328.61090288  .00008770  00000-0  46318-3 0  9996
2 43786  97.4346  19.3035 0013169 351.9736   8.1284 15.15672071381884
EAGLET 1
1 43790U 18099AJ  25328.69184278  .00005961  00000-0  36162-3 0  9997
2 43790  97.4545  18.6943 0010874 338.9448  21.1333 15.10853766381433
ESEO
1 43792U 18099AL  25328.71144255  .00001916  00000-0  14512-3 0  9994
2 43792  97.4271   9.6311 0010506 318.7556  41.2876 15.03384901381075
JO-97
1 43803U 18099AX  25328.72240343  .00018478  00000-0  71957-3 0  9990
2 43803  97.4445  26.6064 0005317 276.9271  83.1362 15.26025683382360
Suomi 100
1 43804U 18099AY  25328.65268938  .00014393  00000-0  62022-3 0  9998
2 43804  97.4501  25.2608 0009763 282.3352  77.6792 15.22639824382238
ISAT
1 43879U 18111D   25328.35852703  .00038190  00000-0  95607-3 0  9997
2 43879  97.5902 247.3492 0006223 353.2765   6.8395 15.39972849379412
UWE-4
1 43880U 18111E   25328.49623206  .00027784  00000-0  86591-3 0  9997
2 43880  97.5847 244.5338 0010052 354.7684   5.3451 15.33173971379286
Sparrow
1 43881U 18111F   25328.56354157  .00045864  00000-0  10701-2 0  9990
2 43881  97.6084 251.2094 0007059  30.3493 329.8161 15.42058855379569
Prox-1
1 44339U 19036A   25328.56300471  .00016522  00000-0  18812-2 0  9996
2 44339  23.9975  35.0873 0006718 185.3259 174.7168 14.84506786342968
Taurus 1
1 44530U 19059C   25328.85636512  .00008726  00000-0  15050-2 0  9992
2 44530  98.6232 116.7311 0009034 229.1355 130.9066 14.68717073328610
Duchifat 3
1 44854U 19089C   25328.74404390  .00582127  00000-0  18829-2 0  9998
2 44854  36.9301 346.7077 0009595 158.1331 201.9849 15.88417155329263
TO-108
1 44881U 19093C   25328.85733558  .00001224  00000-0  14580-3 0  9991
2 44881  97.7779  40.8875 0014612  43.5238 316.7128 14.86042639321067
FloripaSat 1
1 44885U 19093G   25328.84560962  .00007646  00000-0  60400-3 0  9997
2 44885  97.8058  56.9573 0011914  31.8397 328.3545 15.00915845321969
RS-44
1 44909U 19096E   25328.48517948  .00000025  00000-0  64158-4 0  9992
2 44909  82.5192 115.7392 0216531 262.9310  94.7125 12.79745570276161
SALSAT
1 46495U 20068K   25328.50027017  .00010406  00000-0  40866-3 0  9994
2 46495  97.8779 314.7961 0009020 306.8663  53.1746 15.25877824284101
CSS (TIANHE-1)
1 48274U 21035A   25328.58140127  .00021413  00000-0  27858-3 0  9998
2 48274  41.4653 126.8581 0010743 261.2431  98.7190 15.58193834261195
TUBIN
1 48900U 21059X   25328.81145831  .00385088  60696-4  10218-2 0  9996
2 48900  97.6639 154.5967 0002385 322.1775  37.9331 15.94629473246452
CUTE
1 49263U 21088D   25328.72558100  .00025984  00000-0  35994-3 0  9992
2 49263  97.4360  50.7869 0004893 348.4667  11.6475 15.57060788230491
TeikyoSat 4
1 49396U 21102B   25328.62679654  .00002573  00000-0  16860-3 0  9993
2 49396  97.3919   0.9060 0010530 278.4986  81.5050 15.08522667221870
Z-Sat
1 49399U 21102E   25328.89334163  .00005201  00000-0  27195-3 0  9992
2 49399  97.3602   5.3743 0015869 236.6561 123.3153 15.16186266222469
